Flag for Uzbekistan Weather past 2 weeks in Tashkent, Uzbekistan

Now
84 °F

Clear.


Feels Like: 82 °F
Forecast: 64 / 94 °F
Wind: 1 mph from North

Location: Tashkent

Current Time: Aug 31, 2014 at 10:02:09 AM

Latest Report: Aug 31, 2014 at 9:00 AM


Visibility: 4 mi

Pressure: 29.77 "Hg

Humidity: 27%

Dew point: 46 °F

Location of TashkentLocation

Historic Weather in Tashkent — Graph

°F

Tashkent temperature yesterday

Maximum temperature yesterday: 97 °F (at 3:30 PM)
Minimum temperature yesterday: 66 °F (at 5:00 AM)
Average temperature yesterday: 82 °F

Past Weeks' High & Low Weather Summary

 TemperatureHumidityPressure
High104 °F (Aug 22, 4:30 PM)60% (Aug 29, 1:30 AM)29.98 "Hg (Aug 29, 1:30 AM)
Low63 °F (Aug 17, 4:30 AM)6% (Aug 19, 3:30 PM)29.62 "Hg (Aug 22, 5:30 PM)
Average82 °F29%29.81 "Hg
* Reported Aug 16 8:30 AM — Aug 31 8:30 AM, Tashkent, Weather by CustomWeather, © 2014

Note: Actual official high and low records may vary slightly from our data, if they occured in-between our weather recording intervals... More about our weather records

Advertising

Tashkent weather history for previous 24 hours

 ConditionsComfort  
Time TempWeatherWind HumidityBarometerVisibility
8:30 AM
Aug 31
82 °FClear.3 mph28%29.77 "Hg4 mi
8:00 AM77 °FClear.6 mph32%29.77 "Hg4 mi
7:30 AM75 °FSunny.8 mph34%29.77 "Hg10 mi
7:00 AM72 °FSunny.3 mph36%29.77 "Hg10 mi
6:30 AM68 °FSunny.3 mph46%29.77 "Hg10 mi
6:00 AM66 °FSunny.3 mph49%29.74 "Hg10 mi
5:30 AM68 °FClear.3 mph46%29.74 "Hg10 mi
5:00 AM66 °FClear.6 mph49%29.74 "Hg10 mi
4:30 AM66 °FClear.8 mph49%29.74 "Hg10 mi
4:00 AM66 °FClear.8 mph52%29.74 "Hg10 mi
3:30 AM68 °FClear.6 mph49%29.74 "Hg10 mi
3:00 AM68 °FClear.6 mph49%29.74 "Hg10 mi
2:30 AM68 °FClear.6 mph56%29.74 "Hg10 mi
2:00 AM70 °FClear.6 mph53%29.74 "Hg10 mi
1:30 AM70 °FClear.6 mph53%29.74 "Hg10 mi
1:00 AM72 °FClear.3 mph50%29.74 "Hg10 mi
12:30 AM72 °FClear.6 mph53%29.74 "Hg10 mi
12:00 AM73 °FClear.6 mph50%29.74 "Hg10 mi
11:30 PM
Aug 30
75 °FClear.No wind50%29.74 "Hg10 mi
11:00 PM77 °FClear.1 mph47%29.74 "Hg10 mi
10:00 PM79 °FClear.6 mph42%29.77 "Hg10 mi
9:30 PM79 °FClear.3 mph42%29.74 "Hg10 mi
9:00 PM82 °FClear.1 mph35%29.77 "Hg10 mi
8:30 PM84 °FClear.3 mph33%29.77 "Hg10 mi
8:00 PM86 °FClear.3 mph31%29.74 "Hg10 mi
7:30 PM86 °FClear.1 mph31%29.74 "Hg10 mi
7:00 PM88 °FClear.6 mph27%29.74 "Hg10 mi
6:30 PM91 °FSunny.3 mph17%29.74 "Hg10 mi
6:00 PM93 °FPassing clouds.6 mph15%29.74 "HgN/A
5:00 PM97 °FSunny.8 mph13%29.74 "Hg10 mi
4:30 PM97 °FPassing clouds.6 mph13%29.77 "HgN/A
4:00 PM97 °FPassing clouds.6 mph13%29.77 "HgN/A
3:30 PM97 °FPassing clouds.8 mph12%29.77 "HgN/A
3:00 PM95 °FPassing clouds.6 mph15%29.77 "HgN/A
2:30 PM95 °FPassing clouds.6 mph16%29.77 "HgN/A
2:00 PM93 °FPassing clouds.6 mph19%29.80 "HgN/A
1:30 PM93 °FSunny.6 mph19%29.80 "Hg10 mi
1:00 PM93 °FPassing clouds.6 mph16%29.80 "HgN/A
12:30 PM93 °FSunny.3 mph17%29.80 "Hg10 mi
12:00 PM91 °FSunny.3 mph18%29.80 "Hg10 mi
11:30 AM90 °FPassing clouds.6 mph20%29.83 "HgN/A
11:00 AM88 °FPassing clouds.3 mph22%29.83 "HgN/A
10:30 AM86 °FSunny.3 mph22%29.83 "Hg10 mi
10:00 AM86 °FPassing clouds.3 mph24%29.83 "HgN/A
Weather by CustomWeather, © 2014

See weather overviewHow to use our weather pages